TimeAKST,TemperatureF,Dew PointF,Humidity,Sea Level PressureIn,VisibilityMPH,Wind Direction,Wind SpeedMPH,Gust SpeedMPH,PrecipitationIn,Events,Conditions,WindDirDegrees,DateUTC
12:01 AM,-9.9,-13.0,86,30.14,1.2,East,33.4,39.1,0.00,Snow,Light Snow,80,2013-01-13 09:01:00
12:12 AM,-9.4,-13.0,84,30.14,1.0,East,35.7,40.3,0.00,Snow,Light Snow,90,2013-01-13 09:12:00
12:30 AM,-7.6,-11.2,84,30.14,1.2,East,28.8,38.0,0.00,Snow,Light Snow,90,2013-01-13 09:30:00
1:01 AM,-7.1,-11.0,83,30.14,1.5,East,25.3,-,0.00,Snow,Light Snow,100,2013-01-13 10:01:00
1:23 AM,-5.8,-9.4,84,30.13,1.0,East,26.5,-,0.00,Snow,Light Snow,100,2013-01-13 10:23:00
2:01 AM,-5.8,-9.4,84,30.11,1.2,East,31.1,36.8,0.00,Snow,Light Snow,90,2013-01-13 11:01:00
2:09 AM,-5.8,-9.4,84,30.09,1.0,East,31.1,38.0,0.00,Snow,Light Snow,100,2013-01-13 11:09:00
2:20 AM,-5.8,-9.4,84,30.08,0.8,East,34.5,42.6,0.00,Snow,Light Snow,90,2013-01-13 11:20:00
3:01 AM,-4.0,-8.0,83,30.04,0.8,East,33.4,44.9,0.00,Snow,Light Snow,90,2013-01-13 12:01:00
3:57 AM,-2.2,-7.6,78,29.99,0.5,East,38.0,43.7,0.00,Fog-Snow,Light Snow,90,2013-01-13 12:57:00
4:01 AM,-2.9,-7.1,82,29.99,0.5,East,34.5,43.7,0.00,Fog-Snow,Light Snow,100,2013-01-13 13:01:00
4:12 AM,-2.2,-5.8,85,29.98,0.5,East,32.2,44.9,0.00,Fog-Snow,Light Snow,100,2013-01-13 13:12:00
4:23 AM,-2.2,-5.8,85,29.98,0.8,East,34.5,40.3,0.00,Snow,Light Snow,90,2013-01-13 13:23:00
4:49 AM,-2.2,-5.8,85,29.96,1.0,East,31.1,40.3,0.00,Snow,Light Snow,90,2013-01-13 13:49:00
5:01 AM,-2.2,-5.8,85,29.93,0.8,East,33.4,41.4,0.00,Snow,Light Snow,90,2013-01-13 14:01:00
5:07 AM,-2.0,-5.1,87,29.93,0.8,East,32.2,41.4,0.00,Snow,Light Snow,100,2013-01-13 14:07:00
5:49 AM,-0.4,-4.0,85,29.91,1.0,East,34.5,44.9,0.00,Snow,Light Snow,90,2013-01-13 14:49:00
6:01 AM,-0.4,-4.0,85,29.91,0.8,East,35.7,42.6,0.00,Snow,Light Snow,100,2013-01-13 15:01:00
6:33 AM,-0.4,-4.0,85,29.88,0.5,East,33.4,49.5,0.00,Fog-Snow,Light Snow,100,2013-01-13 15:33:00
6:40 AM,-0.4,-4.0,85,29.87,0.8,East,36.8,44.9,0.00,Snow,Light Snow,100,2013-01-13 15:40:00
6:46 AM,-0.9,-4.0,87,29.86,0.8,East,39.1,44.9,0.00,Snow,Light Snow,100,2013-01-13 15:46:00
7:01 AM,-0.9,-4.0,87,29.85,0.8,East,41.4,49.5,0.00,Snow,Light Snow,90,2013-01-13 16:01:00
8:01 AM,1.0,-2.0,87,29.79,0.8,East,44.9,52.9,0.00,Snow,Light Snow,100,2013-01-13 17:01:00
9:01 AM,1.4,-2.2,85,29.76,1.0,East,40.3,54.1,0.00,Snow,Light Snow,100,2013-01-13 18:01:00
9:16 AM,1.0,-2.0,87,29.75,1.0,East,39.1,48.3,0.00,Snow,Light Snow,100,2013-01-13 18:16:00
9:57 AM,1.4,-0.4,92,29.73,0.8,East,39.1,46.0,0.00,Snow,Light Snow,100,2013-01-13 18:57:00
10:01 AM,1.9,-0.9,88,29.73,0.8,East,41.4,47.2,0.00,Snow,Light Snow,100,2013-01-13 19:01:00
10:20 AM,1.4,-0.4,92,29.72,0.8,East,39.1,48.3,0.00,Snow,Light Snow,100,2013-01-13 19:20:00
11:01 AM,1.4,-0.4,92,29.70,0.8,East,40.3,46.0,0.00,Snow,Light Snow,100,2013-01-13 20:01:00
11:08 AM,1.4,-0.4,92,29.70,0.5,ESE,42.6,48.3,0.00,Fog-Snow,Light Snow,110,2013-01-13 20:08:00
11:19 AM,1.9,-0.0,91,29.70,0.5,East,35.7,41.4,0.00,Fog-Snow,Light Snow,100,2013-01-13 20:19:00
12:01 PM,3.0,-0.0,87,29.71,0.5,East,32.2,42.6,0.00,Fog-Snow,Light Snow,100,2013-01-13 21:01:00
12:23 PM,3.2,-0.4,85,29.71,0.5,East,34.5,42.6,0.00,Fog-Snow,Light Snow,100,2013-01-13 21:23:00
12:35 PM,3.2,-0.4,85,29.71,0.5,East,34.5,42.6,0.00,Fog-Snow,Light Snow,100,2013-01-13 21:35:00
1:01 PM,3.2,-0.4,85,29.72,0.5,East,32.2,41.4,0.00,Fog-Snow,Light Snow,100,2013-01-13 22:01:00
1:07 PM,3.2,-0.4,85,29.72,0.5,East,33.4,39.1,0.00,Fog-Snow,Light Snow,100,2013-01-13 22:07:00
1:13 PM,3.0,-0.0,87,29.71,0.5,East,34.5,40.3,0.00,Fog-Snow,Light Snow,90,2013-01-13 22:13:00
2:01 PM,1.9,-0.0,91,29.72,0.5,East,32.2,-,0.00,Fog-Snow,Light Snow,90,2013-01-13 23:01:00
2:20 PM,1.4,-0.4,92,29.72,0.8,East,32.2,-,0.00,Snow,Light Snow,90,2013-01-13 23:20:00
2:46 PM,1.4,-0.4,92,29.72,1.0,East,29.9,-,0.00,Snow,Light Snow,90,2013-01-13 23:46:00
2:54 PM,1.4,-0.4,92,29.72,1.5,East,27.6,34.5,0.00,Snow,Light Snow,90,2013-01-13 23:54:00
3:01 PM,1.9,-0.9,88,29.72,1.8,East,31.1,-,0.00,Snow,Light Snow,90,2013-01-14 00:01:00
4:01 PM,1.4,-0.4,92,29.73,2.0,East,27.6,-,0.00,Snow,Light Snow,90,2013-01-14 01:01:00
4:07 PM,1.9,-0.9,88,29.73,2.0,East,31.1,-,0.00,Snow,Light Snow,90,2013-01-14 01:07:00
4:53 PM,1.4,-0.4,92,29.73,1.8,East,31.1,-,0.00,Snow,Light Snow,90,2013-01-14 01:53:00
5:01 PM,1.9,-0.9,88,29.73,1.5,East,33.4,-,0.00,Snow,Light Snow,90,2013-01-14 02:01:00
5:52 PM,1.4,-0.4,92,29.74,1.8,East,27.6,33.4,0.00,Snow,Light Snow,90,2013-01-14 02:52:00
6:01 PM,1.4,-0.4,92,29.74,2.0,East,28.8,-,0.00,Snow,Light Snow,90,2013-01-14 03:01:00
6:20 PM,3.2,-0.4,85,29.74,1.8,East,28.8,35.7,0.00,Snow,Light Snow,90,2013-01-14 03:20:00
6:33 PM,3.2,-0.4,85,29.75,2.0,East,28.8,-,0.00,Snow,Light Snow,90,2013-01-14 03:33:00
7:01 PM,3.2,-0.4,85,29.75,3.0,East,25.3,-,0.00,Snow,Light Snow,90,2013-01-14 04:01:00
8:01 PM,3.0,-0.0,87,29.77,4.0,East,27.6,-,0.00,Snow,Light Snow,90,2013-01-14 05:01:00
9:01 PM,1.0,-2.0,87,29.78,3.0,East,27.6,32.2,0.00,Snow,Light Snow,90,2013-01-14 06:01:00
10:01 PM,1.0,-2.0,87,29.80,3.0,East,27.6,-,0.00,Snow,Light Snow,90,2013-01-14 07:01:00
11:01 PM,1.0,-2.0,87,29.82,4.0,East,25.3,-,0.00,Snow,Light Snow,90,2013-01-14 08:01:00